Weather History for New River MCAS, NC

Change the Weather History Date:

Friday, September 7, 2012

  Actual Average Record
Temperature  
Mean Temperature 78 °F -  
Max Temperature 86 °F 81 °F 91 °F (1998)
Min Temperature 73 °F 66 °F 59 °F (1997)
Cooling Degree Days 14    
Growing Degree Days 28 (Base 50)    
Moisture  
Dew Point 72 °F    
Average Humidity 86    
Maximum Humidity 94    
Minimum Humidity 70    
Precipitation  
Precipitation 0.00 in - - ()
Sea Level Pressure  
Sea Level Pressure 29.93 in    
Wind  
Wind Speed 4 mph (SSE)    
Max Wind Speed 8 mph    
Max Gust Speed -    
Visibility 9 miles    
Events Thunderstorm    
Averages and records for this station are not official NWS values.
T = Trace of Precipitation, MM = Missing Value Source: NWS Daily Summary

Daily Weather History Graph

Daily Weather History Graph

Search for Another Location

Airport:

Trip Planner

Search our weather history database for the weather conditions in past years. The results will help you decide how hot, cold, wet, or windy it might be!

Date:

Astronomy

Sep. 07, 2012 Rise Set
Actual Time 6:47 AM EDT 7:27 PM EDT
Civil Twilight 6:21 AM EDT 7:52 PM EDT
Nautical Twilight 5:51 AM EDT 8:22 PM EDT
Astronomical Twilight 5:21 AM EDT 8:53 PM EDT
Moon 11:38 PM EDT (9/7) 1:20 PM EDT (9/7)
Length of Visible Light 13h 30m
Length of Day
12h 39m
Waning Gibbous, 58% of the Moon is Illuminated
Sep 7
Waning Gibbous
Sep 8
Last Quarter
Sep 15
New
Sep 22
First Quarter
Sep 29
Full

Hourly Weather History & Observations

Time (EDT) Temp. Heat Index Dew Point Humidity Pressure Visibility Wind Dir Wind Speed Gust Speed Precip Events Conditions
12:56 AM 73.0 °F - 71.1 °F 93% 29.95 in 10.0 mi SE 4.6 mph - N/A   Clear
1:56 AM 73.0 °F - 70.0 °F 90% 29.94 in 10.0 mi South 5.8 mph - N/A   Mostly Cloudy
2:09 AM 73.4 °F - 69.8 °F 88% 29.92 in 10.0 mi South 5.8 mph - N/A   Mostly Cloudy
2:56 AM 73.9 °F - 71.1 °F 91% 29.92 in 10.0 mi South 8.1 mph - N/A   Overcast
4:56 AM 73.0 °F - 71.1 °F 93% 29.92 in 10.0 mi West 4.6 mph - N/A   Mostly Cloudy
5:26 AM 73.4 °F - 71.6 °F 94% 29.91 in 10.0 mi Calm Calm - N/A   Mostly Cloudy
5:56 AM 73.0 °F - 71.1 °F 93% 29.92 in 10.0 mi NW 3.5 mph - N/A   Mostly Cloudy
7:03 AM 73.4 °F - 71.6 °F 94% 29.94 in 9.0 mi NW 5.8 mph - N/A   Mostly Cloudy
8:00 AM 73.4 °F - 71.6 °F 94% 29.95 in 2.0 mi North 8.1 mph - N/A   Overcast
8:38 AM 73.4 °F - 71.6 °F 94% 29.96 in 3.0 mi North 8.1 mph - N/A   Overcast
9:03 AM 73.4 °F - 71.6 °F 94% 29.96 in 8.0 mi North 6.9 mph - N/A   Overcast
9:56 AM 75.9 °F - 71.1 °F 85% 29.99 in 9.0 mi Calm Calm - N/A   Overcast
10:17 AM 75.2 °F - 71.6 °F 89% 29.98 in 9.0 mi Calm Calm - N/A   Mostly Cloudy
10:30 AM 78.8 °F - 71.6 °F 78% 29.98 in 10.0 mi Calm Calm - N/A   Mostly Cloudy
10:56 AM 80.1 °F 83.8 °F 72.0 °F 76% 29.98 in 10.0 mi NNE 4.6 mph - N/A   Scattered Clouds
11:56 AM 82.0 °F 87.4 °F 73.0 °F 74% 29.98 in 10.0 mi NNW 6.9 mph - N/A   Scattered Clouds
12:56 PM 82.9 °F 88.8 °F 73.0 °F 72% 29.96 in 10.0 mi East 5.8 mph - N/A   Mostly Cloudy
2:03 PM 84.2 °F 90.9 °F 73.4 °F 70% 29.93 in 10.0 mi East 5.8 mph - N/A   Partly Cloudy
2:56 PM 84.9 °F 93.3 °F 75.0 °F 72% 29.92 in 10.0 mi SE 8.1 mph - N/A   Scattered Clouds
3:56 PM 82.9 °F 89.4 °F 73.9 °F 74% 29.91 in 10.0 mi SE 6.9 mph - N/A   Clear
4:41 PM 80.6 °F 85.4 °F 73.4 °F 79% 29.90 in 10.0 mi South 8.1 mph - N/A Thunderstorm Thunderstorm
5:09 PM 80.6 °F 85.4 °F 73.4 °F 79% 29.90 in 10.0 mi South 6.9 mph - N/A   Partly Cloudy
5:56 PM 80.1 °F 84.5 °F 73.9 °F 81% 29.91 in 10.0 mi Calm Calm - N/A   Partly Cloudy
6:56 PM 80.1 °F 85.1 °F 75.0 °F 85% 29.90 in 10.0 mi SSW 4.6 mph - N/A   Partly Cloudy
7:56 PM 78.1 °F - 73.9 °F 87% 29.91 in 10.0 mi Calm Calm - N/A   Clear
8:56 PM 75.9 °F - 73.9 °F 94% 29.92 in 8.0 mi SSW 4.6 mph - N/A   Clear
9:56 PM 75.9 °F - 73.0 °F 91% 29.91 in 10.0 mi Calm Calm - N/A   Clear
10:47 PM 75.2 °F - 73.4 °F 94% 29.89 in 8.0 mi Calm Calm - N/A   Mostly Cloudy
10:56 PM 75.0 °F - 73.0 °F 94% 29.90 in 8.0 mi Calm Calm - N/A   Mostly Cloudy
11:12 PM 75.2 °F - 73.4 °F 94% 29.89 in 8.0 mi Calm Calm - N/A   Scattered Clouds
11:56 PM 73.9 °F - 72.0 °F 93% 29.89 in 9.0 mi Calm Calm - N/A   Partly Cloudy